Location: *
(50.3440°N, 18.6237°E)
Time: 17:51:32
(UTC+00:00)

ISS - Pass Details

Date: 30 November 2020
Orbit: 418 x 419 km, 51.6° (Epoch: 18 January)

Event Time Altitude Azimuth Distance (km) Brightness Sun altitude
Rises 17:05:30 0° 281° (W) 2,369 1.3 -21.5°
Reaches altitude 10° 17:07:36 10° 283° (WNW) 1,504 0.0 -21.8°
Enters shadow 17:10:19 53° 298° (WNW) 521 -3.1 -22.2°
